Historique des stations

Station météo de Villegouin

Altitude de la station : 151 m







Données météorologiques pour le 28/11/2021
Date
Heure
Températures Humidité Point de rosée Vitesse
du vent
Direction Rafales Windchill Pression Pluviométrie
Cumul
Date
Heure
Températures Humidité Point de rosée Vitesse
du vent
Direction Rafales Windchill Pression Pluviométrie
Cumul
28/11/2021 20:470.2 °C90 %-1.1 °C---0.0 1007 hPa3 mm
28/11/2021 20:450.3 °C90 %-1.1 °C-ONO14 km/h0.6 1007 hPa3 mm
28/11/2021 20:321.0 °C91 %0.0 °C---1.1 1007 hPa3 mm
28/11/2021 20:301.1 °C91 %0.0 °C-ONO14 km/h1.1 1007 hPa3 mm
28/11/2021 20:161.4 °C91 %0.0 °C---1.7 1007 hPa3 mm
28/11/2021 20:141.4 °C91 %0.0 °C-ONO14 km/h1.7 1007 hPa3 mm
28/11/2021 20:011.7 °C91 %0.6 °C---1.7 1007 hPa3 mm
28/11/2021 19:591.7 °C91 %0.6 °C-ONO14 km/h1.7 1007 hPa3 mm
28/11/2021 19:461.9 °C91 %0.6 °C-ONO3 km/h1.7 1007 hPa3 mm
28/11/2021 19:441.9 °C91 %0.6 °C2 km/hONO14 km/h1.7 1007 hPa3 mm
28/11/2021 19:312.1 °C91 %1.1 °C-ONO3 km/h2.2 1007 hPa3 mm
28/11/2021 19:292.1 °C91 %1.1 °C-ONO14 km/h2.2 1007 hPa3 mm
28/11/2021 19:162.2 °C92 %1.1 °C-ONO3 km/h2.2 1007 hPa3 mm
28/11/2021 19:142.2 °C92 %1.1 °C2 km/hONO14 km/h1.7 1007 hPa3 mm
28/11/2021 19:012.1 °C92 %1.1 °C2 km/hONO3 km/h1.7 1007 hPa2.8 mm
28/11/2021 18:592.1 °C92 %1.1 °C2 km/hONO14 km/h1.7 1007 hPa2.8 mm
28/11/2021 18:462.2 °C91 %1.1 °C2 km/hONO5 km/h1.7 1007 hPa2.8 mm
28/11/2021 18:442.2 °C91 %1.1 °C2 km/hONO14 km/h1.7 1007 hPa2.8 mm
28/11/2021 18:312.2 °C91 %1.1 °C2 km/hNO3 km/h1.7 1007 hPa2.8 mm
28/11/2021 18:292.3 °C91 %1.1 °C2 km/hNO14 km/h1.7 1007 hPa2.8 mm
28/11/2021 18:162.2 °C90 %0.6 °C3 km/hONO5 km/h1.1 1007 hPa2.6 mm
28/11/2021 18:142.2 °C90 %0.6 °C-ONO14 km/h2.2 1007 hPa2.6 mm
28/11/2021 18:012.1 °C91 %1.1 °C2 km/hONO8 km/h1.7 1007 hPa2.4 mm
28/11/2021 17:592.1 °C91 %1.1 °C2 km/hONO14 km/h1.7 1006 hPa2.4 mm
28/11/2021 17:462.0 °C91 %0.6 °C5 km/hONO6 km/h1.1 1006 hPa2.2 mm
28/11/2021 17:442.0 °C91 %0.6 °C3 km/hO14 km/h1.1 1006 hPa2.2 mm
28/11/2021 17:311.9 °C89 %0.6 °C3 km/hN13 km/h0.6 1006 hPa1.8 mm
28/11/2021 17:292.0 °C89 %0.6 °C3 km/hONO14 km/h1.1 1006 hPa1.8 mm
28/11/2021 17:162.8 °C86 %0.6 °C2 km/hONO8 km/h2.2 1006 hPa1.4 mm
28/11/2021 17:143.1 °C87 %1.1 °C5 km/hONO14 km/h2.2 1006 hPa1.4 mm
28/11/2021 17:013.4 °C87 %1.7 °C---3.3 1006 hPa1.2 mm
28/11/2021 16:593.4 °C87 %1.7 °C-O14 km/h3.3 1005 hPa1.2 mm
28/11/2021 16:463.9 °C84 %1.7 °C-O3 km/h3.9 1005 hPa1.2 mm
28/11/2021 16:444.0 °C84 %1.7 °C-O14 km/h3.9 1005 hPa1.2 mm
28/11/2021 16:314.6 °C84 %2.2 °C5 km/hONO5 km/h3.3 1006 hPa1.2 mm
28/11/2021 16:294.7 °C84 %2.2 °C3 km/hONO14 km/h3.3 1006 hPa1.2 mm
28/11/2021 16:164.7 °C84 %2.2 °C2 km/hONO6 km/h3.9 1005 hPa1.2 mm
28/11/2021 16:144.6 °C84 %2.2 °C2 km/hONO14 km/h3.9 1005 hPa1.2 mm
28/11/2021 16:014.8 °C84 %2.2 °C3 km/hSO6 km/h4.4 1005 hPa1.2 mm
28/11/2021 15:594.8 °C84 %2.2 °C3 km/hSO14 km/h4.4 1005 hPa1.2 mm
28/11/2021 15:464.8 °C85 %2.8 °C3 km/hO6 km/h4.4 1005 hPa1.2 mm
28/11/2021 15:444.8 °C85 %2.8 °C3 km/hO14 km/h4.4 1005 hPa1.2 mm
28/11/2021 15:314.7 °C87 %2.8 °C2 km/hO3 km/h5.0 1005 hPa1.2 mm
28/11/2021 15:294.7 °C87 %2.8 °C-O14 km/h5.0 1005 hPa1.2 mm
28/11/2021 15:164.9 °C85 %2.8 °C-ONO8 km/h5.0 1005 hPa1.2 mm
28/11/2021 15:144.9 °C85 %2.8 °C-ONO14 km/h5.0 1005 hPa1.2 mm
28/11/2021 15:025.0 °C85 %2.8 °C2 km/hO5 km/h5.0 1005 hPa1 mm
28/11/2021 14:594.9 °C85 %2.8 °C-O14 km/h5.0 1005 hPa1 mm
28/11/2021 14:464.9 °C85 %2.8 °C2 km/hO3 km/h5.0 1005 hPa1 mm
28/11/2021 14:444.9 °C85 %2.8 °C-O14 km/h5.0 1005 hPa1 mm
28/11/2021 14:314.8 °C85 %2.8 °C2 km/hO5 km/h5.0 1005 hPa1 mm
28/11/2021 14:294.8 °C85 %2.8 °C2 km/hO14 km/h5.0 1005 hPa1 mm
28/11/2021 14:164.8 °C86 %2.8 °C2 km/hOSO10 km/h5.0 1005 hPa1 mm
28/11/2021 14:144.9 °C87 %2.8 °C2 km/hO14 km/h5.0 1005 hPa1 mm
28/11/2021 14:014.8 °C88 %2.8 °C-OSO8 km/h5.0 1005 hPa1 mm
28/11/2021 13:594.7 °C88 %2.8 °C-S14 km/h5.0 1005 hPa1 mm
28/11/2021 13:474.7 °C87 %2.8 °C2 km/hONO8 km/h5.0 1005 hPa1 mm
28/11/2021 13:444.8 °C87 %2.8 °C3 km/hO14 km/h4.4 1005 hPa1 mm
28/11/2021 13:314.8 °C88 %2.8 °C3 km/hOSO6 km/h4.4 1005 hPa1 mm
28/11/2021 13:294.8 °C87 %2.8 °C-ONO14 km/h5.0 1005 hPa1 mm
28/11/2021 13:174.7 °C87 %2.8 °C2 km/hSSO5 km/h5.0 1005 hPa1 mm
28/11/2021 13:144.7 °C87 %2.8 °C2 km/hO14 km/h3.9 1005 hPa1 mm
28/11/2021 13:024.9 °C85 %2.8 °C2 km/hONO6 km/h5.0 1005 hPa1 mm
28/11/2021 12:594.9 °C86 %2.8 °C-O14 km/h5.0 1005 hPa1 mm
28/11/2021 12:474.9 °C87 %2.8 °C-O6 km/h5.0 1005 hPa1 mm
28/11/2021 12:444.8 °C86 %2.8 °C3 km/hO14 km/h4.4 1005 hPa1 mm
28/11/2021 12:324.5 °C88 %2.8 °C5 km/hONO5 km/h3.3 1005 hPa1 mm
28/11/2021 12:294.4 °C88 %2.8 °C2 km/hONO14 km/h3.9 1005 hPa1 mm
28/11/2021 12:174.2 °C89 %2.8 °C3 km/hO10 km/h3.3 1005 hPa1 mm
28/11/2021 12:144.1 °C89 %2.8 °C3 km/hOSO14 km/h2.8 1005 hPa1 mm
28/11/2021 12:024.0 °C89 %2.2 °C3 km/hO10 km/h2.8 1006 hPa1 mm
28/11/2021 11:593.9 °C89 %2.2 °C5 km/hO14 km/h2.8 1006 hPa1 mm
28/11/2021 11:473.7 °C90 %2.2 °C-O5 km/h3.9 1006 hPa1 mm
28/11/2021 11:443.7 °C89 %2.2 °C-O14 km/h3.9 1006 hPa1 mm
28/11/2021 11:323.6 °C89 %2.2 °C2 km/hO6 km/h2.8 1006 hPa1 mm
28/11/2021 11:303.6 °C89 %2.2 °C-O14 km/h3.3 1006 hPa1 mm
28/11/2021 11:173.4 °C89 %1.7 °C3 km/hONO6 km/h2.2 1006 hPa1 mm
28/11/2021 11:153.4 °C89 %1.7 °C2 km/hONO14 km/h2.8 1006 hPa1 mm
28/11/2021 11:023.5 °C88 %1.7 °C5 km/hO8 km/h2.2 1006 hPa1 mm
28/11/2021 11:003.5 °C88 %1.7 °C3 km/hO14 km/h2.2 1006 hPa1 mm
28/11/2021 10:473.5 °C88 %1.7 °C5 km/hONO10 km/h2.2 1005 hPa1 mm
28/11/2021 10:453.5 °C88 %1.7 °C3 km/hONO14 km/h2.2 1005 hPa1 mm
28/11/2021 10:323.6 °C89 %2.2 °C3 km/hOSO5 km/h2.2 1005 hPa1 mm
28/11/2021 10:303.5 °C89 %1.7 °C5 km/hO14 km/h2.2 1005 hPa1 mm
28/11/2021 10:173.3 °C89 %1.7 °C5 km/hO6 km/h2.2 1005 hPa1 mm
28/11/2021 10:153.3 °C89 %1.7 °C2 km/hO14 km/h2.8 1005 hPa1 mm
28/11/2021 10:023.2 °C89 %1.7 °C5 km/hO6 km/h2.2 1005 hPa1 mm
28/11/2021 10:003.2 °C90 %1.7 °C3 km/hO14 km/h2.2 1005 hPa1 mm
28/11/2021 09:473.2 °C90 %1.7 °C5 km/hONO6 km/h2.2 1005 hPa1 mm
28/11/2021 09:453.2 °C90 %1.7 °C2 km/hONO14 km/h2.8 1005 hPa1 mm
28/11/2021 09:323.2 °C90 %1.7 °C5 km/hO6 km/h2.2 1005 hPa1 mm
28/11/2021 09:303.2 °C90 %1.7 °C3 km/hONO14 km/h2.2 1005 hPa1 mm
28/11/2021 09:173.1 °C91 %1.7 °C2 km/hONO6 km/h2.8 1004 hPa1 mm
28/11/2021 09:153.1 °C91 %1.7 °C3 km/hONO14 km/h2.2 1004 hPa1 mm
28/11/2021 09:023.0 °C91 %1.7 °C2 km/hO5 km/h2.2 1004 hPa1 mm
28/11/2021 09:003.0 °C91 %1.7 °C5 km/hO14 km/h1.7 1004 hPa1 mm
28/11/2021 08:472.9 °C92 %1.7 °C2 km/hO6 km/h2.2 1004 hPa1 mm
28/11/2021 08:452.9 °C92 %1.7 °C3 km/hOSO14 km/h1.7 1004 hPa1 mm
28/11/2021 08:322.8 °C92 %1.7 °C2 km/hONO5 km/h2.2 1004 hPa1 mm
28/11/2021 08:302.8 °C92 %1.7 °C3 km/hONO14 km/h1.7 1004 hPa1 mm
28/11/2021 08:172.8 °C92 %1.7 °C3 km/hO6 km/h1.7 1004 hPa1 mm
28/11/2021 08:152.8 °C92 %1.7 °C2 km/hONO14 km/h2.2 1004 hPa1 mm
28/11/2021 08:022.7 °C92 %1.7 °C3 km/hO5 km/h1.7 1004 hPa0.8 mm
28/11/2021 08:002.7 °C92 %1.7 °C2 km/hO14 km/h2.2 1004 hPa0.8 mm
28/11/2021 07:472.8 °C92 %1.7 °C3 km/hONO5 km/h1.7 1004 hPa0.8 mm
28/11/2021 07:452.7 °C92 %1.7 °C3 km/hONO14 km/h1.7 1004 hPa0.8 mm
28/11/2021 07:322.8 °C91 %1.7 °C2 km/hO6 km/h2.2 1003 hPa0.6 mm
28/11/2021 07:302.8 °C91 %1.7 °C2 km/hOSO14 km/h2.2 1003 hPa0.6 mm
28/11/2021 07:162.9 °C91 %1.7 °C2 km/hOSO13 km/h2.2 1003 hPa0.6 mm
28/11/2021 07:142.9 °C91 %1.7 °C3 km/hO14 km/h1.7 1003 hPa0.6 mm
28/11/2021 07:013.0 °C91 %1.7 °C3 km/hO6 km/h1.7 1003 hPa0.6 mm
28/11/2021 06:593.0 °C91 %1.7 °C5 km/hONO14 km/h1.7 1003 hPa0.6 mm
28/11/2021 06:463.1 °C91 %1.7 °C5 km/hONO6 km/h2.2 1003 hPa0.4 mm
28/11/2021 06:443.1 °C91 %1.7 °C3 km/hOSO14 km/h2.2 1003 hPa0.4 mm
28/11/2021 06:313.1 °C91 %1.7 °C5 km/hO6 km/h2.2 1003 hPa0.4 mm
28/11/2021 06:293.1 °C91 %1.7 °C3 km/hO14 km/h2.2 1003 hPa0.4 mm
28/11/2021 06:163.2 °C90 %1.7 °C5 km/hO6 km/h2.2 1003 hPa0.2 mm
28/11/2021 06:143.3 °C90 %1.7 °C2 km/hO14 km/h2.8 1003 hPa0.2 mm
28/11/2021 06:013.4 °C89 %1.7 °C3 km/hONO6 km/h2.2 1003 hPa0.2 mm
28/11/2021 05:593.4 °C89 %1.7 °C3 km/hO14 km/h2.2 1003 hPa-
28/11/2021 05:463.5 °C89 %1.7 °C5 km/hONO6 km/h2.2 1003 hPa-
28/11/2021 05:443.5 °C89 %1.7 °C2 km/hONO14 km/h2.8 1003 hPa-
28/11/2021 05:313.6 °C88 %1.7 °C3 km/hO10 km/h2.8 1003 hPa-
28/11/2021 05:293.6 °C88 %1.7 °C2 km/hONO14 km/h3.3 1003 hPa-
28/11/2021 05:163.7 °C88 %1.7 °C8 km/hONO11 km/h1.7 1003 hPa-
28/11/2021 05:143.7 °C88 %1.7 °C2 km/hONO14 km/h3.3 1003 hPa-
28/11/2021 05:013.7 °C88 %2.2 °C3 km/hONO6 km/h2.8 1003 hPa-
28/11/2021 04:593.7 °C88 %2.2 °C3 km/hONO14 km/h2.8 1002 hPa-
28/11/2021 04:463.8 °C87 %1.7 °C3 km/hONO6 km/h2.8 1002 hPa-
28/11/2021 04:443.8 °C87 %1.7 °C3 km/hNNO14 km/h2.8 1002 hPa-
28/11/2021 04:313.8 °C87 %1.7 °C3 km/hONO8 km/h2.8 1002 hPa-
28/11/2021 04:293.8 °C87 %1.7 °C2 km/hSSO14 km/h3.3 1002 hPa-
28/11/2021 04:163.8 °C88 %2.2 °C6 km/hONO8 km/h2.2 1002 hPa-
28/11/2021 04:143.8 °C88 %2.2 °C3 km/hONO14 km/h2.8 1002 hPa-
28/11/2021 04:013.8 °C88 %2.2 °C3 km/hO8 km/h2.8 1002 hPa-
28/11/2021 03:593.8 °C88 %2.2 °C3 km/hONO14 km/h2.8 1002 hPa-
28/11/2021 03:463.8 °C88 %2.2 °C2 km/hONO8 km/h3.3 1002 hPa-
28/11/2021 03:443.8 °C88 %2.2 °C3 km/hONO14 km/h2.8 1002 hPa-
28/11/2021 03:313.8 °C88 %2.2 °C5 km/hOSO10 km/h2.8 1002 hPa-
28/11/2021 03:293.8 °C88 %2.2 °C3 km/hONO14 km/h2.8 1002 hPa-
28/11/2021 03:163.9 °C88 %2.2 °C2 km/hS6 km/h3.3 1002 hPa-
28/11/2021 03:143.9 °C88 %2.2 °C5 km/hONO14 km/h2.8 1002 hPa-
28/11/2021 03:013.9 °C88 %2.2 °C3 km/hO11 km/h2.8 1002 hPa-
28/11/2021 02:593.9 °C88 %2.2 °C3 km/hO14 km/h2.8 1002 hPa-
28/11/2021 02:464.0 °C88 %2.2 °C2 km/hO6 km/h3.3 1002 hPa-
28/11/2021 02:444.0 °C88 %2.2 °C5 km/hSO14 km/h2.8 1002 hPa-
28/11/2021 02:314.0 °C88 %2.2 °C6 km/hO8 km/h2.2 1002 hPa-
28/11/2021 02:294.0 °C88 %2.2 °C2 km/hO14 km/h3.3 1002 hPa-
28/11/2021 02:164.0 °C89 %2.2 °C3 km/hONO8 km/h2.8 1002 hPa-
28/11/2021 02:144.0 °C89 %2.2 °C3 km/hONO14 km/h2.8 1002 hPa-
28/11/2021 02:014.1 °C89 %2.2 °C2 km/hOSO6 km/h3.3 1001 hPa-
28/11/2021 02:004.1 °C89 %2.2 °C5 km/hSSO14 km/h2.8 1001 hPa-
28/11/2021 01:464.1 °C89 %2.2 °C5 km/hSSO8 km/h2.8 1001 hPa-
28/11/2021 01:454.1 °C89 %2.2 °C2 km/hO14 km/h3.3 1001 hPa-
28/11/2021 01:314.1 °C89 %2.8 °C3 km/hOSO8 km/h2.8 1001 hPa-
28/11/2021 01:304.2 °C89 %2.8 °C3 km/hONO14 km/h3.3 1001 hPa-
28/11/2021 01:164.3 °C90 %2.8 °C5 km/hO10 km/h3.3 1001 hPa-
28/11/2021 01:154.3 °C90 %2.8 °C2 km/hO14 km/h3.9 1001 hPa-
28/11/2021 01:014.3 °C89 %2.8 °C5 km/hO14 km/h3.3 1001 hPa-
28/11/2021 01:004.3 °C89 %2.8 °C3 km/hO14 km/h3.3 1001 hPa-
28/11/2021 00:464.3 °C90 %2.8 °C5 km/hONO11 km/h3.3 1001 hPa-
28/11/2021 00:454.3 °C90 %2.8 °C6 km/hONO11 km/h2.8 1001 hPa-
28/11/2021 00:314.3 °C90 %2.8 °C3 km/hONO10 km/h3.3 1001 hPa-
28/11/2021 00:304.3 °C90 %2.8 °C3 km/hONO11 km/h3.3 1001 hPa-
28/11/2021 00:174.3 °C90 %2.8 °C-ONO6 km/h4.4 1001 hPa-
28/11/2021 00:154.3 °C91 %2.8 °C3 km/hO6 km/h3.3 1001 hPa-
28/11/2021 00:024.4 °C91 %3.3 °C3 km/hONO6 km/h3.3 1001 hPa-
28/11/2021 00:004.4 °C91 %3.3 °C2 km/hONO3 km/h3.9 1001 hPa-


Minima :

Température : 0.2 °C
Humidité : 84 %
Point de rosée : -1.1 °C
Vent moyen : 2 km/h
Windchill : 0.0
Pression atm. : 1001 hPa
Maxima :

Température : 5.0 °C
Humidité : 92 %
Point de rosée : 3.3 °C
Vent moyen : 8 km/h
Windchill : 5.0
Pression atm. : 1007 hPa
Rafales max : 14 km/h
Cumul de pluie sur 24H : 3 mm

Villegouin est une commune du département Indre (36).
La station météorologique du réseau de l'association la plus proche de Villegouin est celle de Levroux



Icône Facebook Association Météo Centre Icône Twitter Association Météo Centre Icône Chaîne Youtube Association Météo Centre Icône contact Association Météo Centre Icône Insta Association Météo Centre